DW2380 Weather Reports


time (UTC)temp
C
wind
direction
speed
KPH
gust
KPH
rain 1hr
cm
rain 24hr
cm
rain mn
cm
humidity
%
barometer
mb
20260506044553 3 217 1.6 4.8 0.00 0.00 0.00 88 1011.4
20260506044038 3 205 1.6 4.8 0.00 0.00 0.00 90 1011.3
20260506043543 2 12 0.0 3.2 0.00 0.00 0.00 90 1011.2
20260506043046 1 12 0.0 3.2 0.00 0.00 0.00 90 1011.2
20260506042540 1 5 0.0 3.2 0.00 0.00 0.00 90 1011.2
20260506042041 1 9 0.0 3.2 0.00 0.00 0.00 90 1011.1
20260506041557 0 338 0.0 3.2 0.00 0.00 0.00 91 1011.1
20260506041036 0 0 0.0 1.6 0.00 0.00 0.00 91 1011.1
20260506040538 0 0 0.0 0.0 0.00 0.00 0.00 91 1011.1
20260506040054 0 0 0.0 0.0 0.00 0.00 0.00 91 1011.0
20260506035542 -1 0 0.0 0.0 0.00 0.00 0.00 91 1011.0
20260506035040 -1 0 0.0 0.0 0.00 0.00 0.00 91 1010.9
20260506034548 -1 0 0.0 0.0 0.00 0.00 0.00 92 1010.9
20260506034037 -1 0 0.0 0.0 0.00 0.00 0.00 92 1010.8
20260506033542 -2 0 0.0 0.0 0.00 0.00 0.00 91 1010.8
20260506033045 -2 0 0.0 0.0 0.00 0.00 0.00 91 1010.7
20260506032538 -2 0 0.0 0.0 0.00 0.00 0.00 91 1010.6
20260506032040 -2 0 0.0 0.0 0.00 0.00 0.00 91 1010.5
20260506031546 -3 0 0.0 0.0 0.00 0.00 0.00 91 1010.4
20260506031040 -3 0 0.0 0.0 0.00 0.00 0.00 91 1010.4
20260506030540 -3 0 0.0 1.6 0.00 0.00 0.00 91 1010.4
20260506030051 -3 0 0.0 3.2 0.00 0.00 0.00 91 1010.3
20260506025541 -3 0 0.0 3.2 0.00 0.00 0.00 91 1010.3
20260506025038 -3 313 0.0 3.2 0.00 0.00 0.00 91 1010.2
20260506024543 -3 0 1.6 3.2 0.00 0.00 0.00 91 1010.1
20260506024038 -3 313 0.0 1.6 0.00 0.00 0.00 91 1010.1
20260506023538 -3 0 0.0 1.6 0.00 0.00 0.00 91 1010.1
20260506023051 -3 0 0.0 0.0 0.00 0.00 0.00 91 1010.2
20260506022538 -3 0 0.0 0.0 0.00 0.00 0.00 91 1010.1
20260506022038 -3 0 0.0 0.0 0.00 0.00 0.00 90 1010.1
20260506021553 -3 0 0.0 0.0 0.00 0.00 0.00 90 1010.1
20260506021039 -3 0 0.0 0.0 0.00 0.00 0.00 91 1010.1
20260506020537 -3 0 0.0 0.0 0.00 0.00 0.00 91 1010.1
20260506020051 -3 0 0.0 0.0 0.00 0.00 0.00 90 1010.0
20260506015540 -3 0 0.0 0.0 0.00 0.00 0.00 91 1010.0
20260506015040 -3 0 0.0 0.0 0.00 0.00 0.00 91 1010.0
20260506014557 -3 0 0.0 0.0 0.00 0.00 0.00 91 1010.0
20260506014038 -3 0 0.0 0.0 0.00 0.00 0.00 90 1009.9
20260506013539 -3 0 0.0 0.0 0.00 0.00 0.00 90 1009.8
20260506013043 -3 0 0.0 0.0 0.00 0.00 0.00 90 1009.7
20260506012539 -3 0 0.0 0.0 0.00 0.00 0.00 90 1009.6
20260506012040 -3 0 0.0 0.0 0.00 0.00 0.00 90 1009.6
20260506011546 -3 0 0.0 0.0 0.00 0.00 0.00 90 1009.6
20260506011038 -3 0 0.0 0.0 0.00 0.00 0.00 90 1009.5
20260506010541 -3 0 0.0 0.0 0.00 0.00 0.00 90 1009.5
20260506010050 -3 0 0.0 0.0 0.00 0.00 0.00 90 1009.5
20260506005540 -3 0 0.0 1.6 0.00 0.00 0.00 90 1009.4
20260506005038 -3 0 0.0 1.6 0.00 0.00 0.00 90 1009.4
20260506004547 -2 0 0.0 3.2 0.00 0.00 0.00 90 1009.3
20260506004038 -2 0 0.0 3.2 0.00 0.00 0.00 90 1009.3
20260506003539 -2 256 0.0 3.2 0.00 0.00 0.00 90 1009.2
20260506003047 -3 256 0.0 1.6 0.00 0.00 0.00 90 1009.2
20260506002542 -2 0 0.0 3.2 0.00 0.00 0.00 90 1009.2
20260506002038 -2 0 0.0 3.2 0.00 0.00 0.00 90 1009.2
20260506001609 -2 256 0.0 3.2 0.00 0.00 0.00 90 1009.2
20260506001039 -2 0 0.0 3.2 0.00 0.00 0.00 90 1009.2
20260506000539 -2 256 0.0 0.0 0.00 0.00 0.00 89 1009.1
20260506000055 -2 0 0.0 0.0 0.00 0.00 0.00 89 1009.1
20260505235538 -2 0 0.0 0.0 0.00 0.00 0.00 89 1009.0
20260505235038 -2 0 0.0 3.2 0.00 0.00 0.00 90 1009.0
20260505234553 -2 0 0.0 3.2 0.00 0.00 0.00 90 1009.0
20260505234039 -2 257 1.6 3.2 0.00 0.00 0.00 89 1008.9
20260505233539 -2 256 0.0 1.6 0.00 0.00 0.00 89 1008.9
20260505233056 -2 0 0.0 0.0 0.00 0.00 0.00 89 1008.9
20260505232538 -2 0 0.0 1.6 0.00 0.00 0.00 90 1008.9
20260505232039 -2 0 0.0 1.6 0.00 0.00 0.00 89 1008.9
20260505231555 -2 256 0.0 1.6 0.00 0.00 0.00 89 1008.8
20260505231041 -2 0 0.0 1.6 0.00 0.00 0.00 89 1008.9
20260505230539 -2 0 0.0 3.2 0.00 0.00 0.00 89 1008.9
20260505230110 -2 0 0.0 3.2 0.00 0.00 0.00 89 1008.9
20260505225539 -2 256 0.0 3.2 0.00 0.00 0.00 89 1008.8
20260505225039 -2 0 0.0 3.2 0.00 0.00 0.00 89 1008.8
20260505224552 -2 257 0.0 3.2 0.00 0.00 0.00 89 1008.9
20260505224039 -2 0 0.0 0.0 0.00 0.00 0.00 88 1008.9
20260505223538 -2 0 0.0 0.0 0.00 0.00 0.00 88 1008.8
20260505223058 -1 0 0.0 0.0 0.00 0.00 0.00 88 1008.8
20260505222538 -1 0 0.0 0.0 0.00 0.00 0.00 88 1008.7
20260505222038 -1 0 0.0 0.0 0.00 0.00 0.00 88 1008.8
20260505221553 -1 0 0.0 0.0 0.00 0.00 0.00 87 1008.7
20260505221039 -1 0 0.0 0.0 0.00 0.00 0.00 87 1008.7
20260505220542 -1 0 0.0 0.0 0.00 0.00 0.00 87 1008.7
20260505220052 -1 0 0.0 0.0 0.00 0.00 0.00 87 1008.7
20260505215539 -1 0 0.0 1.6 0.00 0.00 0.00 87 1008.7
20260505215039 -1 0 0.0 1.6 0.00 0.00 0.00 88 1008.6
20260505214559 -1 0 0.0 0.0 0.00 0.00 0.00 87 1008.5
20260505214037 -1 0 0.0 0.0 0.00 0.00 0.00 87 1008.5
20260505213537 -1 0 0.0 0.0 0.00 0.00 0.00 87 1008.6
20260505213054 -1 0 0.0 0.0 0.00 0.00 0.00 87 1008.5
20260505212539 -1 0 0.0 0.0 0.00 0.00 0.00 87 1008.4
20260505212039 -1 0 0.0 0.0 0.00 0.00 0.00 86 1008.4
20260505211548 -1 0 0.0 1.6 0.00 0.00 0.00 86 1008.4
20260505211039 -1 0 0.0 3.2 0.00 0.00 0.00 85 1008.4
20260505210536 -1 0 0.0 3.2 0.00 0.00 0.00 85 1008.4
20260505210053 -1 0 0.0 3.2 0.00 0.00 0.00 84 1008.3
20260505205538 -1 0 0.0 1.6 0.00 0.00 0.00 83 1008.3
20260505205039 0 0 0.0 0.0 0.00 0.00 0.00 83 1008.2
20260505204543 0 0 0.0 3.2 0.00 0.00 0.00 82 1008.2
20260505204039 0 0 0.0 3.2 0.00 0.00 0.00 81 1008.0
20260505203539 0 256 1.6 3.2 0.00 0.00 0.00 81 1008.0
20260505203052 0 256 1.6 3.2 0.00 0.00 0.00 81 1008.0
20260505202538 0 256 1.6 3.2 0.00 0.00 0.00 79 1007.9
20260505202040 0 256 1.6 3.2 0.00 0.00 0.00 80 1007.9
20260505201554 0 256 0.0 1.6 0.00 0.00 0.00 80 1007.8
20260505201039 0 0 0.0 0.0 0.00 0.00 0.00 79 1007.7
20260505200540 0 0 0.0 1.6 0.00 0.00 0.00 79 1007.7
20260505200047 1 0 0.0 1.6 0.00 0.00 0.00 79 1007.7
20260505195538 1 0 0.0 3.2 0.00 0.08 0.00 78 1007.6
20260505195042 1 0 0.0 3.2 0.00 0.08 0.00 78 1007.6
20260505194555 1 256 1.6 4.8 0.00 0.08 0.00 77 1007.5
20260505194040 1 256 1.6 4.8 0.00 0.08 0.00 76 1007.5
20260505193543 2 256 3.2 6.4 0.00 0.08 0.00 75 1007.5
20260505193051 2 259 3.2 6.4 0.00 0.08 0.00 73 1007.5
20260505192542 2 265 3.2 6.4 0.00 0.08 0.00 73 1007.5
20260505192038 2 264 3.2 6.4 0.00 0.08 0.00 73 1007.5
20260505191555 2 254 4.8 6.4 0.00 0.08 0.00 73 1007.4
20260505191038 2 265 3.2 6.4 0.00 0.08 0.00 72 1007.4
20260505190539 3 268 3.2 9.7 0.00 0.08 0.00 72 1007.4
20260505190105 3 277 3.2 9.7 0.00 0.08 0.00 71 1007.3
20260505185539 3 287 4.8 9.7 0.00 0.08 0.00 71 1007.3
20260505185039 3 271 3.2 9.7 0.00 0.08 0.00 71 1007.3
20260505184600 3 277 4.8 9.7 0.00 0.08 0.00 70 1007.3
20260505184039 3 265 4.8 9.7 0.00 0.08 0.00 70 1007.2
20260505183542 4 271 3.2 9.7 0.00 0.08 0.00 68 1007.2
20260505183050 4 267 4.8 16.1 0.00 0.08 0.00 68 1007.1
20260505182539 5 277 4.8 16.1 0.00 0.08 0.00 66 1007.1
20260505182038 5 277 6.4 17.7 0.00 0.08 0.00 66 1007.0
20260505181544 5 254 6.4 17.7 0.00 0.08 0.00 66 1007.0
20260505181041 5 271 9.7 17.7 0.00 0.08 0.00 65 1006.9
20260505180539 5 270 6.4 20.9 0.00 0.08 0.00 65 1006.9
20260505180046 5 284 12.9 20.9 0.00 0.08 0.00 64 1006.8
20260505175539 5 256 4.8 14.5 0.00 0.08 0.00 64 1006.8
20260505175039 5 291 6.4 16.1 0.00 0.08 0.00 64 1006.7
20260505174548 5 284 4.8 16.1 0.00 0.08 0.00 63 1006.8
20260505174056 5 317 9.7 17.7 0.00 0.08 0.00 63 1006.6
20260505173533 6 281 9.7 20.9 0.00 0.08 0.00 63 1006.6
20260505173047 6 309 11.3 20.9 0.00 0.08 0.00 62 1006.6
20260505172533 6 257 9.7 19.3 0.00 0.08 0.00 62 1006.6
20260505172033 6 275 8.0 19.3 0.00 0.08 0.00 62 1006.6
20260505171548 6 290 11.3 19.3 0.00 0.08 0.00 62 1006.6
20260505171037 6 275 11.3 19.3 0.00 0.08 0.00 61 1006.5
20260505170533 6 265 12.9 20.9 0.00 0.08 0.00 61 1006.6
20260505170046 6 269 11.3 20.9 0.00 0.08 0.00 59 1006.5
20260505165533 6 294 12.9 19.3 0.00 0.08 0.00 59 1006.6
20260505165037 6 250 9.7 19.3 0.00 0.08 0.00 60 1006.5
20260505164544 6 261 8.0 19.3 0.00 0.08 0.00 60 1006.5
20260505164037 6 269 11.3 20.9 0.00 0.08 0.00 59 1006.4
20260505163536 7 308 11.3 20.9 0.00 0.08 0.00 58 1006.4
20260505163054 7 281 14.5 20.9 0.00 0.08 0.00 57 1006.4
20260505162538 7 260 8.0 19.3 0.00 0.08 0.00 58 1006.3
20260505162034 7 298 11.3 20.9 0.00 0.08 0.00 59 1006.3
20260505161545 7 304 11.3 22.5 0.00 0.08 0.00 57 1006.2
20260505161034 7 281 11.3 22.5 0.00 0.08 0.00 55 1006.2
20260505160536 7 288 11.3 22.5 0.00 0.08 0.00 55 1006.2
20260505153102 8 281 12.9 30.6 0.00 0.08 0.00 54 1006.0
20260505152539 8 274 16.1 27.4 0.00 0.08 0.00 53 1005.8
20260505152039 8 262 14.5 27.4 0.00 0.08 0.00 54 1005.9
20260505151549 8 261 12.9 27.4 0.00 0.08 0.00 55 1005.9
20260505151037 8 243 11.3 27.4 0.00 0.08 0.00 54 1006.0
20260505150539 8 250 16.1 25.7 0.00 0.08 0.00 53 1005.9
20260505150109 8 275 16.1 25.7 0.00 0.08 0.00 52 1005.9
20260505140535 9 290 12.9 27.4 0.00 0.08 0.00 54 1005.6
20260505125038 9 259 11.3 33.8 0.00 0.08 0.00 58 1005.3
20260505124543 9 310 17.7 33.8 0.00 0.08 0.00 57 1005.2
20260505124038 9 263 16.1 30.6 0.00 0.08 0.00 57 1005.2
20260505123537 9 269 17.7 32.2 0.00 0.08 0.00 54 1005.2
20260505123105 9 270 14.5 32.2 0.00 0.08 0.00 56 1005.2
20260505122537 9 290 16.1 29.0 0.00 0.08 0.00 57 1005.2
20260505122037 9 262 16.1 27.4 0.00 0.08 0.00 57 1005.1
20260505121543 9 267 14.5 27.4 0.00 0.08 0.00 57 1005.0
20260505121040 9 316 16.1 25.7 0.00 0.08 0.00 58 1005.0
20260505120537 9 271 16.1 30.6 0.00 0.08 0.00 58 1004.9
20260505120052 9 282 19.3 30.6 0.00 0.08 0.00 56 1004.9
20260505115536 8 279 16.1 27.4 0.00 0.08 0.00 58 1004.9
20260505115037 8 277 16.1 37.0 0.00 0.08 0.00 54 1004.8
20260505114553 8 280 16.1 37.0 0.00 0.08 0.00 55 1004.7
20260505114038 8 274 17.7 33.8 0.00 0.08 0.00 53 1004.6
20260505113537 8 302 11.3 33.8 0.00 0.08 0.00 55 1004.7
20260505113051 9 284 17.7 33.8 0.00 0.08 0.00 52 1004.6
20260505112536 10 273 19.3 32.2 0.00 0.08 0.00 53 1004.6
20260505112036 10 276 20.9 32.2 0.00 0.08 0.00 52 1004.5
20260505111546 10 265 19.3 30.6 0.00 0.08 0.00 54 1004.3
20260505111038 10 288 17.7 40.2 0.00 0.08 0.00 52 1004.3
20260505110538 10 241 20.9 40.2 0.00 0.08 0.00 52 1004.3
20260505102036 9 324 17.7 37.0 0.00 0.08 0.00 53 1003.9
20260505101546 10 349 14.5 37.0 0.00 0.08 0.00 53 1003.8
20260505101039 10 295 24.1 35.4 0.00 0.08 0.00 54 1003.7
20260505100537 10 295 19.3 32.2 0.00 0.08 0.00 56 1003.7
20260505100044 10 259 20.9 32.2 0.00 0.08 0.00 57 1003.7
20260505095537 10 246 19.3 32.2 0.00 0.08 0.00 59 1003.5
20260505095039 10 271 17.7 29.0 0.00 0.08 0.00 56 1003.6
20260505094557 10 339 16.1 25.7 0.00 0.08 0.00 58 1003.7
20260505094037 9 283 16.1 25.7 0.00 0.08 0.00 56 1003.6
20260505093537 10 259 16.1 25.7 0.00 0.08 0.00 59 1003.6
20260505093048 9 296 11.3 30.6 0.00 0.08 0.00 62 1003.5
20260505092540 8 288 12.9 30.6 0.00 0.08 0.00 66 1003.5
20260505092036 8 246 17.7 32.2 0.00 0.08 0.00 61 1003.5
20260505091550 9 257 16.1 32.2 0.00 0.08 0.00 60 1003.4
20260505091035 9 294 9.7 27.4 0.00 0.08 0.00 65 1003.4
20260505090537 8 277 14.5 29.0 0.00 0.08 0.00 66 1003.4
20260505090107 7 251 14.5 29.0 0.00 0.08 0.00 66 1003.4
20260505085537 8 327 14.5 25.7 0.00 0.15 0.00 67 1003.3
20260505085037 8 286 12.9 32.2 0.00 0.15 0.00 68 1003.1
20260505084544 7 277 14.5 32.2 0.00 0.15 0.00 67 1003.1
20260505084039 8 286 17.7 32.2 0.00 0.15 0.00 66 1002.9
20260505083539 8 302 14.5 25.7 0.00 0.15 0.00 67 1002.9
20260505083044 8 304 6.4 19.3 0.00 0.15 0.00 70 1002.9
20260505082537 8 269 11.3 22.5 0.00 0.15 0.00 71 1002.7
20260505082037 7 301 6.4 24.1 0.00 0.15 0.00 73 1002.8
20260505081554 7 284 14.5 24.1 0.00 0.15 0.00 72 1002.7
20260505081040 7 284 14.5 24.1 0.00 0.15 0.00 70 1002.7
20260505080539 8 292 4.8 22.5 0.00 0.15 0.00 69 1002.5
20260505080054 8 332 11.3 22.5 0.00 0.15 0.00 71 1002.5
20260505075539 7 355 8.0 24.1 0.00 0.28 0.00 74 1002.4
20260505075039 7 325 9.7 24.1 0.00 0.28 0.00 73 1002.4
20260505074548 7 300 4.8 16.1 0.00 0.28 0.00 73 1002.3
20260505074042 7 10 4.8 16.1 0.00 0.28 0.00 72 1002.2
20260505073544 7 355 8.0 16.1 0.00 0.28 0.00 71 1002.2
20260505073058 7 324 4.8 27.4 0.00 0.28 0.00 74 1002.1
20260505072542 7 313 12.9 27.4 0.00 0.28 0.00 73 1002.1
20260505072039 8 256 16.1 27.4 0.00 0.28 0.00 74 1001.9
20260505071551 7 246 9.7 24.1 0.00 0.28 0.00 77 1001.8
20260505071040 7 298 12.9 22.5 0.00 0.28 0.00 77 1001.8
20260505070543 7 289 12.9 22.5 0.00 0.28 0.00 78 1001.7
20260505070051 7 262 16.1 24.1 0.00 0.28 0.00 77 1001.7
20260505065540 7 301 12.9 27.4 0.00 0.28 0.00 78 1001.6
20260505065039 7 286 14.5 27.4 0.00 0.28 0.00 79 1001.5
20260505064552 7 281 12.9 19.3 0.00 0.28 0.00 80 1001.3
20260505064039 7 271 9.7 19.3 0.00 0.28 0.00 81 1001.3
20260505063539 7 267 8.0 24.1 0.00 0.28 0.00 81 1001.3
20260505063044 7 293 12.9 24.1 0.00 0.28 0.00 81 1001.1
20260505062540 7 302 9.7 24.1 0.00 0.28 0.00 82 1001.0
20260505062039 7 319 6.4 22.5 0.00 0.28 0.00 83 1001.0
20260505061551 7 261 11.3 22.5 0.00 0.28 0.00 83 1000.9
20260505061040 7 261 8.0 19.3 0.00 0.28 0.00 84 1000.8
20260505060539 7 300 8.0 19.3 0.00 0.28 0.00 84 1000.7
20260505060052 7 293 8.0 25.7 0.00 0.28 0.00 84 1000.6
20260505055541 7 310 14.5 25.7 0.00 0.28 0.00 83 1000.6
20260505055043 7 337 6.4 17.7 0.00 0.28 0.00 84 1000.5
20260505054552 7 277 8.0 29.0 0.00 0.28 0.00 84 1000.5
20260505054040 7 298 16.1 29.0 0.00 0.28 0.00 83 1000.3
20260505053543 7 296 12.9 27.4 0.00 0.28 0.00 82 1000.3
20260505053044 7 295 17.7 27.4 0.00 0.28 0.00 82 1000.2
20260505052540 8 279 14.5 24.1 0.00 0.28 0.00 81 1000.1
20260505052040 8 263 14.5 24.1 0.00 0.28 0.00 81 999.9
20260505051553 8 262 12.9 24.1 0.00 0.28 0.00 82 999.8
20260505051038 8 292 14.5 24.1 0.00 0.28 0.00 82 999.7
20260505050538 7 273 11.3 20.9 0.00 0.28 0.00 83 999.7
20260505050123 7 259 14.5 22.5 0.00 0.28 0.00 82 999.6